When you browse on this site, cookies collect data to enhance your experience and personalize the content and advertising you see.
Visit our Privacy Policy to learn more. By continuing to use the site, you agree to this use of cookies and data.
  • în România
  • Lista ţărilor
  • Pe 7 zile
  • Temperatura apei
  • Meteo pe hartă
  • Widget-uri
  • user-avatar
    Intrare

    Meteo pe oră la Băileşti

    Astăzi, 27 Mai, Miercuri

    Timp Temperatura Precipitaţii Vânt Presiune Umiditate
    00:00 +11°C° 0 mm 1 m/s 762 mmHg 83%
    01:00 +10°C° 0 mm 2 m/s 762 mmHg 84%
    02:00 +9°C° 0 mm 2 m/s 762 mmHg 86%
    03:00 +9°C° 0 mm 2 m/s 762 mmHg 87%
    04:00 +10°C° 0 mm 1 m/s 762 mmHg 87%
    05:00 +9°C° 0 mm 1 m/s 762 mmHg 88%
    06:00 +10°C° 0 mm 2 m/s 762 mmHg 83%
    07:00 +13°C° 0 mm 2 m/s 762 mmHg 79%
    08:00 +14°C° 0 mm 2 m/s 762 mmHg 74%
    09:00 +16°C° 0 mm 3 m/s 762 mmHg 69%
    10:00 +17°C° 0 mm 3 m/s 762 mmHg 65%
    11:00 +19°C° 0 mm 4 m/s 762 mmHg 60%
    12:00 +19°C° 0.3 mm 4 m/s 761 mmHg 60%
    13:00 +19°C° 0.3 mm 5 m/s 761 mmHg 59%
    14:00 +20°C° 0.3 mm 5 m/s 760 mmHg 59%
    15:00 +20°C° 0.2 mm 5 m/s 760 mmHg 59%
    16:00 +20°C° 0.2 mm 5 m/s 760 mmHg 60%
    17:00 +20°C° 0.2 mm 4 m/s 760 mmHg 60%
    18:00 +18°C° 0.3 mm 4 m/s 760 mmHg 67%
    19:00 +17°C° 0.3 mm 3 m/s 760 mmHg 73%
    20:00 +14°C° 0.3 mm 3 m/s 760 mmHg 80%
    21:00 +13°C° 0.4 mm 3 m/s 760 mmHg 83%
    22:00 +14°C° 0.4 mm 2 m/s 760 mmHg 85%
    23:00 +13°C° 0.4 mm 2 m/s 760 mmHg 87%

    Mâine, 28 Mai, Joi

    Timp Temperatura Precipitaţii Vânt Presiune Umiditate
    00:00 +13°C° 0.4 mm 2 m/s 760 mmHg 88%
    01:00 +12°C° 0.4 mm 2 m/s 760 mmHg 89%
    02:00 +12°C° 0.4 mm 2 m/s 760 mmHg 90%
    03:00 +12°C° 0.1 mm 2 m/s 760 mmHg 90%
    04:00 +10°C° 0.1 mm 2 m/s 760 mmHg 91%
    05:00 +10°C° 0.1 mm 3 m/s 759 mmHg 91%
    06:00 +11°C° 0.1 mm 3 m/s 759 mmHg 88%
    07:00 +13°C° 0.1 mm 3 m/s 759 mmHg 84%
    08:00 +14°C° 0.1 mm 4 m/s 759 mmHg 80%
    09:00 +17°C° 0.1 mm 4 m/s 759 mmHg 75%
    10:00 +18°C° 0.1 mm 4 m/s 759 mmHg 70%
    11:00 +19°C° 0.1 mm 5 m/s 758 mmHg 65%
    12:00 +20°C° 0.2 mm 4 m/s 758 mmHg 61%
    13:00 +21°C° 0.2 mm 4 m/s 757 mmHg 56%
    14:00 +22°C° 0.2 mm 4 m/s 756 mmHg 51%
    15:00 +22°C° 0.2 mm 4 m/s 756 mmHg 53%
    16:00 +21°C° 0.2 mm 5 m/s 756 mmHg 55%
    17:00 +21°C° 0.2 mm 5 m/s 756 mmHg 57%
    18:00 +20°C° 0.2 mm 5 m/s 756 mmHg 62%
    19:00 +17°C° 0.2 mm 5 m/s 756 mmHg 68%
    20:00 +15°C° 0.2 mm 5 m/s 756 mmHg 73%
    21:00 +15°C° 0.1 mm 5 m/s 756 mmHg 75%
    22:00 +14°C° 0.1 mm 5 m/s 757 mmHg 76%
    23:00 +13°C° 0.1 mm 5 m/s 757 mmHg 78%

    Poimâine, 29 Mai, Vineri

    Timp Temperatura Precipitaţii Vânt Presiune Umiditate
    00:00 +13°C° 0 mm 4 m/s 757 mmHg 78%
    01:00 +13°C° 0 mm 4 m/s 756 mmHg 79%
    02:00 +12°C° 0 mm 4 m/s 756 mmHg 80%
    03:00 +12°C° 0 mm 4 m/s 756 mmHg 80%
    04:00 +12°C° 0 mm 5 m/s 756 mmHg 81%
    05:00 +12°C° 0 mm 5 m/s 756 mmHg 81%
    06:00 +13°C° 0 mm 5 m/s 757 mmHg 78%
    07:00 +14°C° 0 mm 6 m/s 757 mmHg 75%
    08:00 +15°C° 0 mm 7 m/s 757 mmHg 73%
    09:00 +16°C° 0 mm 7 m/s 757 mmHg 68%
    10:00 +17°C° 0 mm 7 m/s 757 mmHg 64%
    11:00 +18°C° 0 mm 8 m/s 757 mmHg 60%
    12:00 +20°C° 0.1 mm 8 m/s 756 mmHg 59%
    13:00 +20°C° 0.1 mm 8 m/s 756 mmHg 58%
    14:00 +21°C° 0.1 mm 8 m/s 755 mmHg 57%
    15:00 +20°C° 0 mm 7 m/s 755 mmHg 58%
    16:00 +20°C° 0 mm 7 m/s 755 mmHg 59%
    17:00 +20°C° 0 mm 6 m/s 755 mmHg 60%
    18:00 +19°C° 0 mm 5 m/s 755 mmHg 65%
    19:00 +16°C° 0 mm 5 m/s 755 mmHg 70%
    20:00 +15°C° 0 mm 4 m/s 755 mmHg 75%
    21:00 +14°C° 0.1 mm 4 m/s 755 mmHg 78%
    22:00 +13°C° 0.1 mm 3 m/s 756 mmHg 80%
    23:00 +12°C° 0.1 mm 3 m/s 756 mmHg 82%

    30 Mai, Sâmbătă

    Timp Temperatura Precipitaţii Vânt Presiune Umiditate
    00:00 +12°C° 0 mm 3 m/s 756 mmHg 84%
    01:00 +12°C° 0 mm 3 m/s 756 mmHg 85%
    02:00 +11°C° 0 mm 3 m/s 755 mmHg 87%
    03:00 +11°C° 0 mm 3 m/s 756 mmHg 88%
    04:00 +11°C° 0 mm 3 m/s 756 mmHg 90%
    05:00 +10°C° 0 mm 3 m/s 756 mmHg 92%
    06:00 +12°C° 0.1 mm 3 m/s 756 mmHg 87%
    07:00 +13°C° 0.1 mm 3 m/s 756 mmHg 82%
    08:00 +15°C° 0.1 mm 4 m/s 756 mmHg 78%
    09:00 +17°C° 0.1 mm 4 m/s 756 mmHg 75%
    10:00 +18°C° 0.1 mm 3 m/s 756 mmHg 71%
    11:00 +19°C° 0.1 mm 3 m/s 756 mmHg 68%
    12:00 +20°C° 0.4 mm 3 m/s 756 mmHg 65%
    13:00 +21°C° 0.4 mm 4 m/s 755 mmHg 61%
    14:00 +22°C° 0.4 mm 4 m/s 755 mmHg 57%
    15:00 +22°C° 0.5 mm 4 m/s 755 mmHg 56%
    16:00 +22°C° 0.5 mm 3 m/s 755 mmHg 56%
    17:00 +22°C° 0.5 mm 3 m/s 755 mmHg 56%
    18:00 +20°C° 0.3 mm 4 m/s 755 mmHg 62%
    19:00 +18°C° 0.3 mm 4 m/s 755 mmHg 69%
    20:00 +17°C° 0.3 mm 4 m/s 755 mmHg 76%
    21:00 +15°C° 0.1 mm 4 m/s 755 mmHg 78%
    22:00 +14°C° 0.1 mm 4 m/s 756 mmHg 81%
    23:00 +13°C° 0.1 mm 5 m/s 756 mmHg 83%

    31 Mai, Duminică

    Timp Temperatura Precipitaţii Vânt Presiune Umiditate
    00:00 +13°C° 0 mm 5 m/s 756 mmHg 83%
    01:00 +13°C° 0 mm 5 m/s 756 mmHg 84%
    02:00 +13°C° 0 mm 5 m/s 756 mmHg 84%
    03:00 +12°C° 0 mm 5 m/s 756 mmHg 82%
    04:00 +12°C° 0 mm 5 m/s 756 mmHg 80%
    05:00 +10°C° 0 mm 5 m/s 756 mmHg 78%
    06:00 +13°C° 0 mm 6 m/s 756 mmHg 73%
    07:00 +14°C° 0 mm 7 m/s 756 mmHg 68%
    08:00 +15°C° 0 mm 7 m/s 756 mmHg 63%
    09:00 +16°C° 0 mm 7 m/s 756 mmHg 59%
    10:00 +18°C° 0 mm 7 m/s 756 mmHg 56%
    11:00 +20°C° 0 mm 7 m/s 756 mmHg 52%
    12:00 +20°C° 0 mm 7 m/s 756 mmHg 50%
    13:00 +21°C° 0 mm 7 m/s 756 mmHg 49%
    14:00 +22°C° 0 mm 7 m/s 755 mmHg 47%
    15:00 +22°C° 0 mm 7 m/s 755 mmHg 47%
    16:00 +21°C° 0 mm 7 m/s 755 mmHg 48%
    17:00 +21°C° 0 mm 6 m/s 754 mmHg 48%
    18:00 +20°C° 0 mm 6 m/s 754 mmHg 54%
    19:00 +17°C° 0 mm 5 m/s 754 mmHg 59%
    20:00 +17°C° 0 mm 4 m/s 755 mmHg 65%
    21:00 +15°C° 0 mm 5 m/s 755 mmHg 66%
    22:00 +14°C° 0 mm 5 m/s 755 mmHg 68%
    23:00 +14°C° 0 mm 5 m/s 755 mmHg 70%

    1 Iunie, Luni

    Timp Temperatura Precipitaţii Vânt Presiune Umiditate
    00:00 +13°C° 0 mm 5 m/s 755 mmHg 71%
    01:00 +13°C° 0 mm 5 m/s 755 mmHg 71%
    02:00 +13°C° 0 mm 5 m/s 755 mmHg 72%
    03:00 +13°C° 0 mm 5 m/s 755 mmHg 73%
    04:00 +11°C° 0 mm 6 m/s 755 mmHg 74%
    05:00 +11°C° 0 mm 6 m/s 754 mmHg 75%
    06:00 +14°C° 0 mm 6 m/s 754 mmHg 72%
    07:00 +15°C° 0 mm 7 m/s 754 mmHg 69%
    08:00 +17°C° 0 mm 8 m/s 754 mmHg 65%
    09:00 +18°C° 0 mm 8 m/s 754 mmHg 62%
    10:00 +20°C° 0 mm 8 m/s 754 mmHg 59%
    11:00 +21°C° 0 mm 8 m/s 754 mmHg 56%
    12:00 +21°C° 0.1 mm 8 m/s 753 mmHg 57%
    13:00 +21°C° 0.1 mm 7 m/s 753 mmHg 58%
    14:00 +21°C° 0.1 mm 7 m/s 753 mmHg 60%
    15:00 +21°C° 0 mm 7 m/s 752 mmHg 60%
    16:00 +21°C° 0 mm 8 m/s 752 mmHg 61%
    17:00 +20°C° 0 mm 8 m/s 752 mmHg 62%
    18:00 +18°C° 0 mm 7 m/s 752 mmHg 66%
    19:00 +17°C° 0 mm 6 m/s 752 mmHg 70%
    20:00 +15°C° 0 mm 6 m/s 753 mmHg 75%
    21:00 +15°C° 0 mm 6 m/s 753 mmHg 75%
    22:00 +14°C° 0 mm 6 m/s 753 mmHg 75%
    23:00 +14°C° 0 mm 6 m/s 753 mmHg 75%
    Arată mai mult